Location: Unspecified
(56.5167°N, 0.0000°E)
Time: 21:48:11
(UTC+02:00)

ISS - Visible Passes

Search period start: 16 May 2021 00:00
Search period end: 26 May 2021 00:00
Orbit: 417 x 422 km, 51.6° (Epoch: 16 May)

Date Brightness Start Highest point End Pass type
(mag) Time Alt. Az. Time Alt. Az. Time Alt. Az.
16 May -3.2 01:15:43 10° WSW 01:18:49 34° S 01:21:55 10° ESE visible
16 May -3.0 02:52:11 10° WSW 02:55:11 30° SSW 02:58:12 10° SE visible
16 May -1.9 04:29:31 10° WSW 04:31:18 14° SSW 04:33:04 10° S visible
17 May -3.0 00:28:27 10° SW 00:31:29 31° SSE 00:34:31 10° ESE visible
17 May -3.1 02:04:46 10° WSW 02:07:51 33° S 02:10:57 10° ESE visible
17 May -2.2 03:41:44 10° WSW 03:44:04 18° SSW 03:46:23 10° SSE visible
17 May -2.8 23:41:15 10° SW 23:44:09 27° SSE 23:47:04 10° ESE visible
18 May -3.2 01:17:23 10° WSW 01:20:30 35° S 01:22:53 15° ESE visible
18 May -2.2 02:54:07 10° WSW 02:55:46 19° SW 02:55:46 19° SW visible
19 May -3.2 00:30:01 10° WSW 00:33:09 36° S 00:36:16 10° ESE visible
19 May -2.7 02:06:36 10° WSW 02:09:23 26° SSW 02:09:23 26° SSW visible
19 May -3.1 23:42:41 10° WSW 23:45:47 34° S 23:48:53 10° ESE visible
20 May -2.9 01:19:09 10° WSW 01:22:09 30° SSW 01:23:11 25° SSE visible
21 May -3.0 00:31:43 10° WSW 00:34:48 33° S 00:37:06 15° SE visible
21 May -1.8 02:08:41 10° WSW 02:10:02 16° SW 02:10:02 16° SW visible
21 May -3.1 23:44:19 10° WSW 23:47:27 35° S 23:50:34 10° ESE visible
22 May -2.4 01:21:04 10° WSW 01:23:43 22° SSW 01:23:59 21° SSW visible
23 May -2.6 00:33:32 10° WSW 00:36:24 26° SSW 00:37:58 18° SSE visible
23 May -2.8 23:46:03 10° WSW 23:49:04 30° SSW 23:51:58 11° SE visible
24 May -1.7 01:23:25 10° WSW 01:24:55 13° SW 01:24:55 13° SW visible
25 May -2.0 00:35:35 10° WSW 00:37:54 17° SSW 00:38:57 15° S visible
25 May -2.2 23:47:57 10° WSW 23:50:36 22° SSW 23:53:00 11° SSE visible
